User: anonymous   Login
Location: Unnamed
(51.8936°N, 11.0665°E)
Time: 12:19:51
(UTC+02:00)
Language:

UKube-1 - Orbit

View from above orbital plane
View from above orbital plane
View from above satellite
View from above satellite

Ground track
Ground track

The orbit data is extracted from the following two-line orbital elements,

1 40074U 14037F   21263.88351055  .00000464  00000-0  61962-4 0  9991
2 40074  98.4188 125.0235 0005627  76.0566 284.1256 14.84635959390063
Epoch (UTC): 20 September 2021 21:12:15
Eccentricity: 0.0005627
inclination: 98.4188°
perigee height: 611 km
apogee height: 618 km
right ascension of ascending node: 125.0235°
argument of perigee: 76.0566°
revolutions per day: 14.84635959
mean anomaly at epoch: 284.1256°
orbit number at epoch: 39006

The dashed part of the orbit path shows where the satellite is in the earth's shadow,  

DLR